www.pogodaiklimat.ru

Погода и климат >> Архив погоды >> Французская Гвиана >> Сен-Лоран-дю-Марони


ПОГОДА в Сен-Лоран-дю-Марони

  • Прогноз погоды в Сен-Лоран-дю-Марони
  • Монитор погоды в Сен-Лоран-дю-Марони

АРХИВ ПОГОДЫ в Сен-Лоран-дю-Марони

Время (UTC), дата Ветер
(напр.,м/с)
 
Видим.   Явления Облачность Т
(С)
Тd
(С)
f
(%)
Тe
(С)
Тes
(С)
Комфортность P
(гПа)
Po
(гПа)
Тmin
(С)
Tmax
(С)
R
(мм)
R24
(мм)
S
(см)
12 12.01 В 1 н/о н/о +26.3 +24.0 87 +36 +36 очень
душно
1015.0 1014.4 +21.1 +30.4
15 12.01 СВ 3 н/о н/о +29.4 +22.6 67 +39 +39 очень
душно
1014.8 1014.2 +21.1 +30.4
18 12.01 С 3 н/о н/о +29.1 +22.3 67 +38 +38 очень
душно
1012.2 1011.6 +21.1 +30.8 0.2
21 12.01 СВ 2 н/о н/о +27.8 +20.9 66 +35 +35 очень
душно
1012.3 1011.7 +21.1 +30.8
00 13.01 СВ 1 н/о н/о +23.4 +22.0 92 +32 +32 очень
душно
1013.8 1013.2 +21.1 +30.8
03 13.01 штиль 0 н/о н/о +22.1 +21.4 96 +29 +29 очень
душно
1013.3 1012.7 +21.1 +30.8
06 13.01 штиль 0 н/о н/о +21.4 +20.9 97 +27 +27 душно 1012.0 1011.4 +21.1 +30.8
09 13.01 Ю 1 н/о н/о +21.7 +21.4 98 +28 +28 душно 1012.1 1011.5 +20.7 +30.8 0.2
12 13.01 СВ 1 н/о н/о +24.5 +23.6 95 +33 +33 очень
душно
1014.4 1013.8 +20.7 +30.8 0.2
15 13.01 СВ 2 н/о н/о +29.0 +23.2 71 +39 +39 очень
душно
1014.2 1013.6 +20.7 +30.8 0.4
18 13.01 В 3 н/о н/о +29.5 +22.7 67 +39 +39 очень
душно
1011.5 1010.9 +20.7 +30.0
21 13.01 СВ 2 н/о н/о +26.3 +21.9 77 +34 +34 очень
душно
1011.8 1011.2 +20.7 +30.0 0.2
00 14.01 СВ 1 н/о н/о +23.1 +22.1 94 +31 +31 очень
душно
1013.6 1013.0 +20.7 +30.0
03 14.01 ЮЗ 1 н/о н/о +22.2 +21.5 96 +29 +29 очень
душно
1013.4 1012.8 +20.7 +30.0
06 14.01 штиль 0 н/о н/о +21.6 +21.1 97 +28 +28 очень
душно
1012.5 1011.9 +20.7 +30.0
09 14.01 ЮВ 1 н/о н/о +21.3 +20.8 97 +27 +27 душно 1012.7 1012.1 +21.0 +30.0
12 14.01 Ю 1 н/о н/о +24.7 +24.2 97 +34 +34 очень
душно
1015.3 1014.7 +21.0 +30.0 0.2
15 14.01 СВ 3 н/о н/о +29.4 +21.1 61 +37 +37 очень
душно
1014.7 1014.1 +21.0 +30.8
18 14.01 С 2 н/о н/о +31.0 +22.6 61 +41 +41 опасность
перегрева
1012.0 1011.4 +21.0 +32.0
21 14.01 СВ 2 н/о н/о +27.8 +21.3 68 +35 +35 очень
душно
1011.9 1011.3 +21.0 +32.0
00 15.01 СВ 1 н/о н/о +24.8 +22.5 87 +32 +32 очень
душно
1013.6 1013.0 +21.0 +32.0
03 15.01 штиль 0 н/о н/о +23.0 +22.2 95 +31 +31 очень
душно
1014.0 1013.4 +21.0 +32.0
06 15.01 штиль 0 н/о н/о +23.2 +22.5 96 +32 +32 очень
душно
1012.3 1011.7 +21.0 +32.0 0.6
09 15.01 Ю 1 н/о н/о +23.0 +22.5 97 +32 +32 очень
душно
1012.6 1012.0 +21.2 +32.0
12 15.01 В 3 н/о н/о +24.3 +23.6 96 +33 +33 очень
душно
1015.1 1014.5 +22.7 +32.0 5
15 15.01 СВ 3 н/о н/о +26.7 +24.5 88 +38 +38 очень
душно
1014.6 1014.0 +22.7 +32.0 3
18 15.01 СВ 2 н/о н/о +26.9 +24.7 88 +38 +38 очень
душно
1011.8 1011.2 +22.7 +31.3 3
21 15.01 СВ 2 н/о н/о +25.3 +23.9 92 +35 +35 очень
душно
1011.9 1011.3 +22.7 +28.3 21
00 16.01 СВ 2 н/о н/о +24.7 +23.3 92 +33 +33 очень
душно
1013.9 1013.3 +22.7 +28.3
03 16.01 СВ 1 н/о н/о +23.8 +22.9 95 +32 +32 очень
душно
1014.0 1013.4 +22.7 +28.3
06 16.01 штиль 0 н/о н/о +22.9 +22.4 97 +31 +31 очень
душно
1012.7 1012.1 +22.7 +28.3
09 16.01 штиль 0 н/о н/о +23.1 +22.6 97 +32 +32 очень
душно
1013.0 1012.4 +22.6 +28.3
12 16.01 штиль 0 н/о н/о +25.1 +24.6 97 +35 +35 очень
душно
1015.3 1014.7 +22.6 +28.3
15 16.01 СВ 3 н/о н/о +29.2 +23.2 70 +39 +39 очень
душно
1015.2 1014.6 +22.6 +29.8
18 16.01 СВ 3 н/о н/о +29.7 +22.9 67 +40 +40 очень
душно
1012.1 1011.5 +22.6 +31.9
21 16.01 СВ 2 н/о н/о +27.2 +24.1 83 +38 +38 очень
душно
1012.3 1011.7 +22.6 +31.9
00 17.01 СВ 1 н/о н/о +25.0 +23.2 90 +33 +33 очень
душно
1014.1 1013.5 +22.6 +31.9
03 17.01 В 1 н/о н/о +24.7 +23.7 94 +34 +34 очень
душно
1014.4 1013.8 +22.6 +31.9 0.6
06 17.01 штиль 0 н/о н/о +23.3 +22.5 95 +32 +32 очень
душно
1013.1 1012.5 +22.6 +31.9
09 17.01 В 1 н/о н/о +23.2 +22.7 97 +32 +32 очень
душно
1013.1 1012.5 +22.8 +31.9 0.2
12 17.01 СВ 2 н/о н/о +27.5 +24.9 86 +39 +39 очень
душно
1015.4 1014.8 +22.8 +31.9
15 17.01 СВ 4 н/о н/о +30.1 +23.0 66 +40 +40 очень
душно
1015.2 1014.6 +22.8 +31.9
18 17.01 В 3 н/о н/о +30.8 +22.7 62 +40 +40 очень
душно
1012.4 1011.8 +22.8 +31.1
21 17.01 СВ 2 н/о н/о +28.4 +22.6 71 +38 +38 очень
душно
1011.5 1010.9 +22.8 +31.1
00 18.01 СВ 1 н/о н/о +23.7 +22.3 92 +31 +31 очень
душно
1013.2 1012.6 +22.8 +31.1
03 18.01 В 1 н/о н/о +22.9 +22.2 96 +31 +31 очень
душно
1013.9 1013.3 +22.8 +31.1
06 18.01 ЮЗ 1 н/о н/о +22.5 +21.8 96 +30 +30 очень
душно
1012.5 1011.9 +22.5 +31.1
09 18.01 штиль 0 н/о н/о +21.7 +21.2 97 +28 +28 душно 1012.4 1011.8 +21.6 +31.1
12 18.01 В 1 н/о н/о +26.9 +24.9 89 +39 +39 очень
душно
1014.1 1013.5 +21.4 +31.1
15 18.01 СВ 2 н/о н/о +31.2 +23.8 65 +43 +43 опасность
перегрева
1013.9 1013.3 +21.4 +31.2
18 18.01 СВ 2 н/о н/о +29.4 +22.9 68 +39 +39 очень
душно
1011.5 1010.9 +21.4 +31.2
21 18.01 СВ 3 н/о н/о +27.0 +22.8 78 +36 +36 очень
душно
1011.4 1010.8 +21.4 +31.2
00 19.01 СВ 1 н/о н/о +24.2 +22.8 92 +32 +32 очень
душно
1012.3 1011.7 +21.4 +31.2
03 19.01 В 1 н/о н/о +24.1 +23.2 95 +32 +32 очень
душно
1013.0 1012.4 +21.4 +31.2 0.8
06 19.01 СВ 1 н/о н/о +23.8 +23.1 96 +32 +32 очень
душно
1012.0 1011.4 +21.4 +31.2
09 19.01 штиль 0 н/о н/о +23.8 +22.8 94 +31 +31 очень
душно
1012.1 1011.5 +21.4 +31.2

 

Местоположение метеостанции Сен-Лоран-дю-Марони (Французская Гвиана): широта 5.50 долгота -54.03 высота над уровнем моря 9 м.

В архиве по умолчанию представлена погода в Сен-Лоран-дю-Марони за последнюю неделю. Архивные данные за месяц целиком и за предыдущие месяцы, начиная с января 2011 года, Вы можете получить, выбрав интересующий диапазон дат из раскрывающегося списка и нажав кнопку "Ввод!".


*Определитесь, кто Вы:
робот инопланетянин человек

Внимание! Время в таблицах - всемирное. Для получения местного времени необходимо прибавить поправку, которая равна -3 ч.

Смотрите также архив погоды в соседних городах и на ближайших метеорологических станциях:

Погода в Аэропорту Йохан Пенгель (Суринам) (130 км)
Погода в Парамарибо (Суринам) (132 км)
Погода на Острове Stoelmans (Суринам) (135 км)
Погода в Кайенне (Французская Гвиана) (199 км)
Погода в Марипаёле (Французская Гвиана) (208 км)
Погода в Ояпоки (Амапа, Бразилия) (305 км)
Погода в Сен-Жорже (Французская Гвиана) (306 км)
Погода в Никкери (Суринам) (336 км)
Погода в Кайетуре (Гайана) (371 км)
Погода в Нью Амстердаме (Гайана) (395 км)

Пояснения к столбцам:

Ветер - указаны скорость ветра в м/с - средняя за 10 мин, порывы в срок и между сроками (в фигурных скобках) и направление, откуда дует ветер: С - северный, СВ - северо-восточный, В - восточный, ЮВ - юго-восточный, Ю - южный, ЮЗ - юго-западный, З - западный, СЗ - северо-западный.
Видимость - горизонтальная дальность видимости в метрах или километрах. При видимости от 1 до 10 км при отсутствии осадков обычно наблюдается дымка, при ухудшении видимости до 1 км и менее - туман. В сухую погоду видимость может ухудшаться дымом, пылью или мглою.
Явления - указаны атмосферные явления, наблюдавшиеся в срок или в последний час перед сроком; фигурными скобками обозначены явления, наблюдавшиеся между сроками (за 1-3 часа до срока); квадратными скобками обозначены град или гололедные отложения с указанием их диаметра в мм.
Облачность - указаны через наклонную черту общая и нижняя облачность в баллах и высота нижней границы облаков в метрах; квадратными скобками обозначены формы облаков: Ci - перистые, Cs - перисто-слоистые, Cc - перисто-кучевые, Ac - высококучевые, As - высокослоистые, Sc - слоисто-кучевые, Ns - слоисто-дождевые, Cu - кучевые, Cb - кучево-дождевые. Подробнее классификацию облаков см. в Атласе облаков (PDF).
T - Температура воздуха - температура, измеренная на высоте 2 м над землей.
Td - Температура точки росы - температура, при понижении до которой содержащийся в воздухе водяной пар достигнет насыщения.
f - Относительная влажность воздуха - влажноcть воздуха, измеренная на высоте 2 м над землей.
Te - Эффективная температура - температура, которую ощущает одетый по сезону человек в тени. Характеристика душности погоды. При расчете учитывается влияние влажности воздуха и скорости ветра на теплоощущения человека.
Tes - Эффективная температура на солнце - температура, которую ощущает человек, с поправкой на солнечный нагрев. Характеристика знойности погоды. Зависит от высоты солнца над горизонтом, облачности и скорости ветра. Ночью, в пасмурную погоду, а также при ветре 12 м/с и более поправка равна нулю.
P - Атмосферное давление - приведенное к уровню моря атмосферное давление.
Po - Атмосферное давление - измеренное на уровне метеостанции атмосферное давление.
Tmin - Минимальная температура - минимум температуры воздуха на высоте 2 м над землей.
Tmax - Максимальная температура - максимум температуры воздуха на высоте 2 м над землей.
R - Количество осадков - Количество выпавших осадков за период времени, мм. При наведении курсора мыши на число - период времени, за который выпало указанное количество осадков.
R24 - Количество осадков - Количество выпавших осадков за 24 часа, мм.
S - Снежный покров - Высота снежного покрова, см. При наведении курсора мыши на число - состояние снежного покрова и степень покрытия местности в баллах.